Content
SEND FEEDBACK

Daily
Averages
Monthly
Summary
French Polynesia

PAPEETE, FRENCH POLYNESIA


Home > Oceania > French Polynesia
Elevation: 7 feet     Latitude: 17 33S     Longitude: 149 36W

WEATHER
 
SELECT A DAY
Number of Records: 208,679;   Date Range: 6/30/96 - 8/10/14
 
SHARE

PRINT THIS DATA

[ ← Previous Day ]
WEATHER ALMANAC - MAY 15, 2014
[ Next Day → ]
[ °C ]   °F
Weather ElementAverageHighLow
Temperature80.2 °F86 °F (1:00 pm)75 °F (5:00 am)
Dewpoint71.6 °F73.4 °F (8:30 am)68 °F (5:30 am)
Humidity74.5 %83 % (12:30 am)55 % (2:00 pm)
Barometer29.94 in30.00 in (11:00 pm)29.89 in (4:30 am)
Wind Speed5 mph10.4 mph (10:00 am)
Weather ElementAverage
Visibility8 mi
Wind DirectionSE (136.4 °)

Weather ElementTotal
Precipitation---
Cooling Degree Days15.5 (Base 65)
Growing Degree Days30.5 (Base 50)
Averaged from 55 records on May 15, 2014
WEATHER CONDITIONS BREAKOUT
WIND DIRECTION BREAKOUT
WEATHER BY HOUR - MAY 15, 2014
[ °C ]   °F
Local TimeTemperatureDewpointHumidityBarometerVisibilityWind DirectionWind SpeedGust SpeedPrecipitationEventsConditions
12:30 AM77.0 °F71.6 °F83 %29.92 in6.2 miSouth (170°)3.5 mphMostly Cloudy
1:00 AM77.0 °F69.8 °F78 %29.92 in6.2 miSSE (160°)3.5 mphScattered Clouds
1:30 AM77.0 °F71.6 °F83 %29.92 in6.2 miSouth (170°)5.8 mphScattered Clouds
2:00 AM77.0 °F71.0 °F77 %29.92 in12.0 miSE (140°)5.8 mphPartly Cloudy
2:00 AM77.0 °F71.6 °F83 %29.92 in6.2 miSE (140°)5.8 mphPartly Cloudy
2:30 AM77.0 °F71.6 °F83 %29.92 in6.2 miSouth (170°)5.8 mphPartly Cloudy
3:00 AM77.0 °F71.6 °F83 %29.92 in6.2 miESE (110°)4.6 mphPartly Cloudy
3:30 AM75.2 °F69.8 °F83 %29.92 in6.2 miENE (70°)5.8 mphPartly Cloudy
4:00 AM75.2 °F69.8 °F83 %29.92 in6.2 miSouth (170°)5.8 mph
4:30 AM75.2 °F69.8 °F83 %29.89 in6.2 miCalm
5:00 AM75.0 °F69.0 °F76 %29.92 in37.0 miSouth (180°)5.8 mphClear
5:00 AM75.2 °F69.8 °F83 %29.92 in6.2 miSouth (180°)5.8 mph
5:30 AM75.2 °F68.0 °F78 %29.92 in6.2 miSouth (170°)5.8 mph
6:00 AM75.2 °F69.8 °F83 %29.92 in6.2 miEast (90°)3.5 mphPartly Cloudy
6:30 AM75.2 °F68.0 °F78 %29.95 in6.2 miESE (110°)3.5 mphPartly Cloudy
7:00 AM75.2 °F69.8 °F83 %29.95 in6.2 miCalmPartly Cloudy
7:30 AM77.0 °F71.6 °F83 %29.95 in6.2 miVariable2.3 mphPartly Cloudy
8:00 AM81.0 °F72.0 °F68 %29.97 in19.0 miENE (70°)1.2 mphPartly Cloudy
8:00 AM80.6 °F71.6 °F74 %29.95 in6.2 miVariable2.3 mphPartly Cloudy
8:30 AM82.4 °F73.4 °F74 %29.95 in6.2 miWNW (290°)1.2 mphPartly Cloudy
9:00 AM82.4 °F73.4 °F74 %29.98 in6.2 miSW (230°)4.6 mphPartly Cloudy
9:30 AM82.4 °F73.4 °F74 %29.98 in6.2 miSW (220°)8.1 mphPartly Cloudy
10:00 AM82.4 °F71.6 °F70 %29.98 in6.2 miSSW (210°)10.4 mphScattered Clouds
10:30 AM84.2 °F73.4 °F70 %29.95 in6.2 miSSW (210°)9.2 mphScattered Clouds
11:00 AM82.0 °F73.0 °F68 %29.97 in19.0 miSSW (210°)9.2 mphMostly Cloudy
11:00 AM82.4 °F73.4 °F74 %29.95 in6.2 miSSW (210°)9.2 mphScattered Clouds
11:30 AM82.4 °F73.4 °F74 %29.95 in6.2 miSSW (210°)8.1 mphScattered Clouds
12:00 PM84.2 °F73.4 °F70 %29.95 in6.2 miSSW (210°)9.2 mphScattered Clouds
12:30 PM84.2 °F73.4 °F70 %29.92 in6.2 miSSW (210°)8.1 mphScattered Clouds
1:00 PM86.0 °F73.4 °F66 %29.92 in6.2 miSW (230°)5.8 mphScattered Clouds
1:30 PM86.0 °F73.4 °F66 %29.92 in6.2 miSW (230°)5.8 mphPartly Cloudy
2:00 PM86.0 °F72.0 °F55 %29.91 in19.0 miSW (220°)6.9 mphPartly Cloudy
2:00 PM86.0 °F71.6 °F62 %29.89 in6.2 miSW (220°)6.9 mphPartly Cloudy
2:30 PM86.0 °F73.4 °F66 %29.89 in6.2 miVariable6.9 mphPartly Cloudy
3:00 PM86.0 °F71.6 °F62 %29.89 in6.2 miSSW (200°)8.1 mphPartly Cloudy
3:30 PM86.0 °F71.6 °F62 %29.92 in6.2 miVariable3.5 mphPartly Cloudy
4:00 PM86.0 °F73.4 °F66 %29.89 in6.2 miSSW (210°)4.6 mphPartly Cloudy
4:30 PM84.2 °F73.4 °F70 %29.92 in6.2 miSSW (200°)6.9 mphPartly Cloudy
5:00 PM84.0 °F72.0 °F61 %29.92 in19.0 miSSW (210°)6.9 mphScattered Clouds
5:00 PM84.2 °F73.4 °F70 %29.92 in6.2 miSSW (210°)6.9 mphScattered Clouds
5:30 PM82.4 °F71.6 °F70 %29.92 in6.2 miSSW (200°)5.8 mphPartly Cloudy
6:00 PM82.4 °F71.6 °F70 %29.92 in6.2 miSW (220°)4.6 mphScattered Clouds
6:30 PM82.4 °F71.6 °F70 %29.92 in6.2 miVariable3.5 mphScattered Clouds
7:00 PM80.6 °F71.6 °F74 %29.95 in6.2 miEast (100°)3.5 mphPartly Cloudy
7:30 PM78.8 °F71.6 °F78 %29.95 in6.2 miSE (140°)1.2 mphPartly Cloudy
8:00 PM79.0 °F71.0 °F72 %29.98 in12.0 miESE (110°)2.3 mphScattered Clouds
8:00 PM78.8 °F71.6 °F78 %29.98 in6.2 miVariable2.3 mphPartly Cloudy
8:30 PM78.8 °F71.6 °F78 %29.98 in6.2 miENE (70°)8.1 mphPartly Cloudy
9:00 PM78.8 °F71.6 °F78 %29.98 in6.2 miEast (100°)3.5 mphPartly Cloudy
9:30 PM78.8 °F71.6 °F78 %29.98 in6.2 miEast (100°)3.5 mphPartly Cloudy
10:00 PM77.0 °F71.6 °F83 %29.98 in6.2 miEast (80°)3.5 mphPartly Cloudy
10:30 PM77.0 °F71.6 °F83 %29.98 in6.2 miCalmPartly Cloudy
11:00 PM77.0 °F71.0 °F76 %30.00 in12.0 miENE (70°)3.5 mphScattered Clouds
11:00 PM77.0 °F71.6 °F83 %29.98 in6.2 miENE (70°)3.5 mphPartly Cloudy
11:30 PM77.0 °F69.8 °F78 %29.98 in6.2 miVariable1.2 mphPartly Cloudy
Hourly data recorded from NTAA, located miles away from Papeete, French Polynesia







STORIES FROM OUR PARTNERS